Starlink 11701

operational
NORAD ID: 63760 Int'l Des: 2025-089 Owner: SPXS Country: US Constellation: starlink
LEOCIRCULAR

Starlink 11701について

説明を読み込み中...

リアルタイム位置

3D地球を読み込み中...

次回通過

高度履歴

Altitude vs Time

uPlot chart will show altitude changes over time

軌道要素

1 63760U 25089K 25353.53779379 .00170062 00000-0 12993-2 0 9996
2 63760 43.0016 55.0174 0002691 278.6234 81.4329 15.70885225 37538
Epoch: Dec 19, 2025 • Age: 40 hours

現在のステータス

高度 356.5 km
速度 7.70 km/s
衛星直下点 31.95°N, 75.18°W
打ち上げ日 Apr 29, 2025
運用期間 0.6 years
タイプ internet

技術仕様

分類 Payload
質量 960.00 kg
乾燥質量 910.00 kg
総質量 960.00 kg
長さ 0.30 m
直径 4.10 m
スパン 29.00 m
形状 Box + pan
製造者 SPXS
バスタイプ Starlink V2MD
フェーズステータス In Orbit
所有者/国 SPXS/US

大規模コンステレーション

Loading constellations...